Provincetown, MA

11:22 PM EDT on May 25, 2018 (GMT -0400)
Provincetown Municipal

Weather History for KPVC - January, 2013

Change the Weather History Date:

Monday, January 7, 2013

  Actual Average Record
Temperature  
Mean Temperature 32 °F -  
Max Temperature 39 °F 36 °F 53 °F (2012)
Min Temperature 24 °F 27 °F 5 °F (2018)
Degree Days  
Heating Degree Days 34    
Moisture  
Dew Point 28 °F    
Average Humidity 75    
Maximum Humidity 93    
Minimum Humidity 65    
Precipitation  
Precipitation 0.35 in - - ()
Sea Level Pressure  
Sea Level Pressure 30.21 in    
Wind  
Wind Speed 12 mph (NW)    
Max Wind Speed 21 mph    
Max Gust Speed 26 mph    
Visibility 10 miles    
Events      
Averages and records for this station are not official NWS values.
T = Trace of Precipitation, MM = Missing Value Source: NWS Daily Summary

Daily Weather History Graph

Daily Weather History Graph

Search for Another Location

Airport or City:

Astronomy

Jan. 07, 2013 Rise Set
Actual Time 7:08 AM EST 4:25 PM EST
Civil Twilight 6:37 AM EST 4:57 PM EST
Nautical Twilight 6:02 AM EST 5:32 PM EST
Astronomical Twilight 5:28 AM EST 6:05 PM EST
Moon 2:27 AM EST (1/7) 12:35 PM EST (1/7)
Length of Visible Light 10h 19m
Length of Day
9h 16m
Waning Crescent, 23% of the Moon is Illuminated
Jan 7
Waning Crescent
Jan 11
New
Jan 18
First Quarter
Jan 26
Full
Feb 3
Last Quarter

Hourly Weather History & Observations

Time (EST) Temp. Windchill Dew Point Humidity Pressure Visibility Wind Dir Wind Speed Gust Speed Precip Events Conditions
12:35 AM 39.2 °F 33.0 °F 32.0 °F 75% 29.97 in 10.0 mi West 9.2 mph - 0.01 in   Overcast
12:55 AM 39.2 °F 33.0 °F 30.2 °F 70% 29.98 in 10.0 mi West 9.2 mph - 0.01 in   Overcast
1:15 AM 37.4 °F 30.3 °F 30.2 °F 75% 29.98 in 10.0 mi West 10.4 mph - N/A   Overcast
1:56 AM 37.4 °F 29.3 °F 30.2 °F 75% 30.00 in 10.0 mi West 12.7 mph - N/A   Mostly Cloudy
2:35 AM 37.4 °F 30.3 °F 30.2 °F 75% 30.01 in 10.0 mi WNW 10.4 mph 16.1 mph N/A   Scattered Clouds
2:55 AM 37.4 °F 28.9 °F 30.2 °F 75% 30.00 in 10.0 mi West 13.8 mph - N/A   Clear
3:15 AM 37.4 °F 29.3 °F 30.2 °F 75% 30.00 in 10.0 mi West 12.7 mph - N/A   Clear
3:35 AM 37.4 °F 28.9 °F 30.2 °F 75% 30.00 in 10.0 mi WNW 13.8 mph - N/A   Partly Cloudy
3:55 AM 39.2 °F 32.0 °F 30.2 °F 70% 30.01 in 10.0 mi West 11.5 mph 19.6 mph 0.02 in   Mostly Cloudy
4:15 AM 37.4 °F 28.9 °F 30.2 °F 75% 30.01 in 10.0 mi WNW 13.8 mph 20.7 mph N/A   Partly Cloudy
4:35 AM 37.4 °F 28.5 °F 30.2 °F 75% 30.01 in 10.0 mi WNW 15.0 mph 20.7 mph 0.01 in   Clear
4:55 AM 37.4 °F 27.8 °F 30.2 °F 75% 30.02 in 10.0 mi WNW 17.3 mph - 0.01 in   Clear
5:15 AM 37.4 °F 27.8 °F 30.2 °F 75% 30.03 in 10.0 mi WNW 17.3 mph 23.0 mph N/A   Clear
5:35 AM 39.2 °F 29.6 °F 30.2 °F 70% 30.04 in 10.0 mi WNW 19.6 mph 23.0 mph N/A   Clear
5:55 AM 39.2 °F 29.6 °F 30.2 °F 70% 30.05 in 10.0 mi WNW 19.6 mph 26.5 mph N/A   Clear
6:15 AM 39.2 °F 29.8 °F 30.2 °F 70% 30.06 in 10.0 mi WNW 18.4 mph 25.3 mph 0.01 in   Scattered Clouds
6:35 AM 39.2 °F 30.8 °F 32.0 °F 75% 30.07 in 10.0 mi WNW 15.0 mph 23.0 mph 0.01 in   Scattered Clouds
6:55 AM 39.2 °F 31.6 °F 32.0 °F 75% 30.09 in 10.0 mi WNW 12.7 mph - 0.01 in   Partly Cloudy
7:35 AM 39.2 °F 30.5 °F 32.0 °F 75% 30.12 in 10.0 mi NW 16.1 mph 25.3 mph N/A   Clear
7:55 AM 39.2 °F 29.3 °F 32.0 °F 75% 30.13 in 10.0 mi NW 20.7 mph - N/A   Clear
8:55 AM 39.2 °F 30.2 °F 33.8 °F 81% 30.17 in 10.0 mi NNW 17.3 mph 26.5 mph N/A   Clear
9:15 AM 39.2 °F 29.6 °F 32.0 °F 75% 30.19 in 10.0 mi NNW 19.6 mph 26.5 mph N/A   Partly Cloudy
9:55 AM 39.2 °F 29.8 °F 32.0 °F 75% 30.22 in 10.0 mi NNW 18.4 mph 25.3 mph 0.01 in   Mostly Cloudy
10:15 AM 39.2 °F 29.8 °F 32.0 °F 75% 30.23 in 10.0 mi NNW 18.4 mph 25.3 mph 0.01 in   Mostly Cloudy
10:35 AM 39.2 °F 30.2 °F 30.2 °F 70% 30.23 in 10.0 mi NNW 17.3 mph 25.3 mph 0.01 in   Mostly Cloudy
10:55 AM 39.2 °F 30.2 °F 28.4 °F 65% 30.23 in 10.0 mi North 17.3 mph - 0.01 in   Scattered Clouds
11:35 AM 39.2 °F 30.2 °F 32.0 °F 75% 30.24 in 10.0 mi NNE 17.3 mph 21.9 mph N/A   Overcast
11:55 AM 37.4 °F 28.5 °F 30.2 °F 75% 30.25 in 10.0 mi North 15.0 mph 23.0 mph N/A   Overcast
12:15 PM 37.4 °F 27.5 °F 30.2 °F 75% 30.26 in 10.0 mi NNE 18.4 mph 24.2 mph N/A   Overcast
12:35 PM 37.4 °F 28.2 °F 28.4 °F 70% 30.28 in 10.0 mi North 16.1 mph 23.0 mph N/A   Overcast
1:15 PM 37.4 °F 28.9 °F 28.4 °F 70% 30.30 in 10.0 mi North 13.8 mph 18.4 mph N/A   Overcast
1:35 PM 35.6 °F 26.2 °F 28.4 °F 75% 30.31 in 10.0 mi North 15.0 mph 20.7 mph N/A   Overcast
2:15 PM 37.4 °F 29.3 °F 26.6 °F 65% 30.33 in 10.0 mi North 12.7 mph 21.9 mph N/A   Mostly Cloudy
2:55 PM 35.6 °F 28.0 °F 24.8 °F 65% 30.35 in 10.0 mi NNE 10.4 mph - N/A   Scattered Clouds
3:15 PM 35.6 °F 28.0 °F 24.8 °F 65% 30.36 in 10.0 mi NNE 10.4 mph - N/A   Mostly Cloudy
3:35 PM 35.6 °F 29.2 °F 26.6 °F 70% 30.37 in 10.0 mi NNE 8.1 mph - N/A   Overcast
3:55 PM 35.6 °F 30.7 °F 26.6 °F 70% 30.37 in 10.0 mi NNE 5.8 mph - 0.03 in   Overcast
4:35 PM 33.8 °F 29.6 °F 26.6 °F 75% 30.38 in 10.0 mi NE 4.6 mph - 0.21 in   Overcast
4:55 PM 33.8 °F 28.6 °F 24.8 °F 70% 30.39 in 10.0 mi NE 5.8 mph - 0.25 in   Scattered Clouds
5:15 PM 33.8 °F 29.6 °F 24.8 °F 70% 30.39 in 10.0 mi NE 4.6 mph - N/A   Scattered Clouds
6:15 PM 26.6 °F - 23.0 °F 86% 30.42 in 10.0 mi Calm Calm - N/A   Partly Cloudy
6:35 PM 26.6 °F - 21.2 °F 80% 30.42 in 10.0 mi Calm Calm - N/A   Clear
6:55 PM 26.6 °F 22.6 °F 21.2 °F 80% 30.42 in 10.0 mi SE 3.5 mph - N/A   Clear
7:15 PM 26.6 °F 22.6 °F 23.0 °F 86% 30.43 in 10.0 mi SE 3.5 mph - N/A   Clear
7:35 PM 24.8 °F 17.9 °F 21.2 °F 86% 30.42 in 10.0 mi SE 5.8 mph - N/A   Clear
7:55 PM 24.8 °F - 21.2 °F 86% 30.42 in 10.0 mi Calm Calm - N/A   Clear
8:55 PM 26.6 °F 21.2 °F 24.8 °F 93% 30.42 in 10.0 mi SSE 4.6 mph - N/A   Clear
10:15 PM 24.8 °F 20.5 °F 19.4 °F 80% 30.41 in 10.0 mi SSE 3.5 mph - N/A   Clear
11:15 PM 30.2 °F 25.4 °F 24.8 °F 80% 30.41 in 10.0 mi South 4.6 mph - N/A   Clear
11:35 PM 30.2 °F 25.4 °F 26.6 °F 86% 30.40 in 10.0 mi South 4.6 mph - N/A   Clear